Retour au catalogue

DMSP 5D-2 F13 DEB

ActifSSO
NORAD 40395·DEBRIS·🇺🇸 United States

Lancé Mar 24, 1995 depuis Vandenberg Space Force Base

Loading…

Prochains Passages (prochaines 24 heures)

TLE

FraisSource: Space-Track

Époque: Sep 14, 2026, 18:46 UTC

1 40395U 95015G   26257.78253031  .00001107  00000-0  44321-3 0  9998
2 40395  98.5956 279.6948 0022576  14.8372 345.3469 14.30196973600482

Suivez DMSP 5D-2 F13 DEB en temps réel avec AllMySat

Download on the App Store